Simultaneous Nadir Overpasses (SNOs) Predictions

Prediction of SNOs between GOES-15 and LANDSAT-8 Satellite Orbit:

Table of predicted SNOs for the next 14.0 days since TLE Epoch: 8/10/2024
Index Date Time (GOES-15) GOES-15 Lat,Lon LANDSAT-8 Lat,Lon Distance(km) Time Diff (sec)
1 08/11/2024 05:52:43 -0.12, 61.63 -0.87, 65.01 385.66 80
2 08/11/2024 18:11:28 0.16, 61.77 -0.24, 59.82 221.41 80
3 08/13/2024 18:01:58 0.15, 61.85 0.35, 62.78 106.11 80
4 08/14/2024 06:20:35 -0.19, 61.74 0.67, 57.61 469.81 80
5 08/15/2024 17:49:48 0.14, 61.93 0.97, 65.74 433.18 80
6 08/16/2024 06:08:24 -0.18, 61.83 0.10, 60.58 142.81 80
7 08/18/2024 05:58:53 -0.18, 61.92 -0.51, 63.54 183.77 80
8 08/18/2024 18:17:38 0.21, 62.07 -0.56, 58.34 423.23 80
9 08/20/2024 18:05:26 0.21, 62.16 0.05, 61.31 96.53 80
10 08/22/2024 17:55:53 0.21, 62.25 0.63, 64.28 230.31 80
11 08/23/2024 06:14:28 -0.24, 62.16 0.41, 59.11 345.98 80
